Regional Weather Roundup
Issued by NWS

Home | Current Version | Previous Version | Text Only | Print | Product List | Glossary On
Versions: 1 2 3 4 5 6 7 8 9 10 11 12 13 14 15 16 17 18 19 20 21 22 23 24 25 26 27 28 29 30 31 32 33 34 35 36 37 38 39 40 41 42 43 44 45 46 47 48 49 50
000
ASUS44 KLIX 010501
RWRLA
LOUISIANA WEATHER ROUNDUP
NATIONAL WEATHER SERVICE NEW ORLEANS LA
1200 AM CDT WED OCT 01 2014

NOTE: "FAIR" INDICATES FEW OR NO CLOUDS BELOW 12,000 FEET WITH NO
      SIGNIFICANT WEATHER AND/OR OBSTRUCTIONS TO VISIBILITY.
      SKY/WX - SKY CONDITION AND SIGNIFICANT WEATHER.
      TMP - AIR TEMPERATURE.    DP   - DEWPOINT TEMPERATURE.
      RH  - RELATIVE HUMIDITY.  PRES - PRESSURE.
      HX  - HEAT INDEX.         WCI  - WIND CHILL INDEX.

*  THESE STATIONS ARE NOT NWS OR FAA STATIONS AND ARE NOT UNDER
   NWS QUALITY CONTROL.

LAZ040-048-061>063-065-066-069-010600-
SOUTHEAST LOUISIANA

CITY           SKY/WX    TMP DP  RH WIND       PRES   REMARKS
N.O. AUDUBON     N/A     78  74  88 MISG        N/A
N.O. INTL ARPT PTCLDY    77  72  84 SE6       29.88S
N.O. LAKEFRONT CLEAR     76  72  87 SE7       29.89S
N.O. DOWNTOWN* FAIR      77  70  78 SE6       29.89S
SLIDELL        CLEAR     72  69  90 CALM      29.88S
BATON ROUGE    CLEAR     74  71  91 E5        29.87S
BOOTHVILLE     CLEAR     77  74  90 E6        29.88F
BELLE CHASSE   PTCLDY    75  70  84 CALM      29.88S
BOGALUSA*        N/A     71  67  88 CALM      29.90F FOG
GALLIANO*      NOT AVBL
NEW ROADS*     CLOUDY    75  71  85 SE3       29.87S
GONZALES*      FAIR      75  75 100 CALM      29.87S
HAMMOND*       NOT AVBL
HOUMA*         CLEAR    N/A N/A N/A CALM      29.86F
PORT FOURCHON* PTCLDY    81  73  78 SE9G16    29.90S

$$

LAZ041-044-053-054-010600-
SOUTHWEST LOUISIANA

CITY           SKY/WX    TMP DP  RH WIND       PRES   REMARKS
LAKE CHARLES   CLEAR     75  73  93 SE3       29.83S FOG
LAFAYETTE      PTCLDY    76  74  93 E3        29.86R
PATTERSON      CLEAR     75  73  94 E3          N/A
SALT POINT       N/A     79  76  90 CALM      29.85S
NEW IBERIA     CLEAR     76  74  93 SE6       29.86S
CHENAULT AIRPK CLEAR     73  73  98 SE3       29.84S FOG

$$

LAZ027-028-010600-
CENTRAL LOUISIANA

CITY           SKY/WX    TMP DP  RH WIND       PRES   REMARKS
FORT POLK      CLEAR     73  71  93 VRB1      29.83F
ALEXANDRIA INT PTCLDY    75  71  87 SE7       29.82S
ALEXANDRIA     CLEAR     72  70  93 CALM      29.84F

$$

LAZ001-002-010600-
NORTHWEST LOUISIANA

CITY           SKY/WX    TMP DP  RH WIND       PRES   REMARKS
SHREVEPORT     PTCLDY    75  69  81 SE7       29.82S
BARKSDALE AFB  PTCLDY    74  68  80 SE8       29.82F
DTN SHREVEPORT PTCLDY    77  68  73 SE5       29.82S

$$

LAZ014-016-010600-
NORTHEAST LOUISIANA

CITY           SKY/WX    TMP DP  RH WIND       PRES   REMARKS
MONROE         PTCLDY    73  67  81 CALM      29.85F
TALLULAH       CLEAR     75  67  76 SE7       29.87S

$$



USA.gov is the U.S. government's official web portal to all federal, state and local government web resources and services.